When you browse on this site, cookies collect data to enhance your experience and personalize the content and advertising you see.
Visit our Privacy Policy to learn more. By continuing to use the site, you agree to this use of cookies and data.
  • In Latvia
  • List of Countries
  • For 7 days
  • Water Temperature
  • Weather Map
  • Weather Widgets
  • user-avatar
    Login

    Hourly Weather Drozdino

    Today, 15 October, Tuesday

    Time Temperature Precipitation Wind Pressure Humidity
    00:00 +14°C° 0 mm 5 mps 741 mmHg 89%
    01:00 +14°C° 0.1 mm 5 mps 742 mmHg 88%
    02:00 +13°C° 0.1 mm 5 mps 742 mmHg 87%
    03:00 +13°C° 0 mm 3 mps 742 mmHg 90%
    04:00 +13°C° 0.1 mm 4 mps 743 mmHg 87%
    05:00 +13°C° 0.1 mm 4 mps 743 mmHg 83%
    06:00 +12°C° 0.1 mm 5 mps 744 mmHg 80%
    07:00 +12°C° 0 mm 5 mps 744 mmHg 80%
    08:00 +12°C° 0 mm 5 mps 745 mmHg 79%
    09:00 +12°C° 0 mm 5 mps 746 mmHg 79%
    10:00 +10°C° 0 mm 5 mps 747 mmHg 77%
    11:00 +9°C° 0 mm 5 mps 748 mmHg 75%
    12:00 +9°C° 0 mm 5 mps 749 mmHg 73%
    13:00 +10°C° 0 mm 4 mps 750 mmHg 70%
    14:00 +10°C° 0 mm 4 mps 751 mmHg 68%
    15:00 +9°C° 0 mm 3 mps 752 mmHg 64%
    16:00 +8°C° 0 mm 3 mps 752 mmHg 68%
    17:00 +7°C° 0 mm 3 mps 752 mmHg 71%
    18:00 +6°C° 0 mm 2 mps 753 mmHg 75%
    19:00 +5°C° 0 mm 2 mps 753 mmHg 76%
    20:00 +5°C° 0 mm 2 mps 754 mmHg 78%
    21:00 +4°C° 0 mm 2 mps 754 mmHg 80%
    22:00 +3°C° 0 mm 2 mps 754 mmHg 79%
    23:00 +3°C° 0 mm 2 mps 755 mmHg 79%

    Tomorrow, 16 October, Wednesday

    Time Temperature Precipitation Wind Pressure Humidity
    00:00 +2°C° 0 mm 2 mps 755 mmHg 79%
    01:00 +2°C° 0 mm 2 mps 756 mmHg 79%
    02:00 +3°C° 0 mm 1 mps 756 mmHg 79%
    03:00 +2°C° 0 mm 1 mps 756 mmHg 79%
    04:00 +2°C° 0 mm 1 mps 756 mmHg 80%
    05:00 +2°C° 0 mm 1 mps 756 mmHg 80%
    06:00 +1°C° 0 mm 2 mps 756 mmHg 81%
    07:00 +2°C° 0 mm 2 mps 756 mmHg 80%
    08:00 +2°C° 0 mm 2 mps 757 mmHg 79%
    09:00 +1°C° 0 mm 3 mps 757 mmHg 78%
    10:00 +3°C° 0 mm 3 mps 756 mmHg 74%
    11:00 +4°C° 0 mm 3 mps 756 mmHg 71%
    12:00 +5°C° 0 mm 4 mps 756 mmHg 67%
    13:00 +5°C° 0 mm 4 mps 755 mmHg 66%
    14:00 +6°C° 0 mm 4 mps 755 mmHg 66%
    15:00 +6°C° 0 mm 4 mps 755 mmHg 65%
    16:00 +6°C° 0 mm 4 mps 754 mmHg 67%
    17:00 +6°C° 0 mm 5 mps 753 mmHg 69%
    18:00 +5°C° 0 mm 5 mps 753 mmHg 71%
    19:00 +5°C° 0 mm 5 mps 752 mmHg 72%
    20:00 +6°C° 0 mm 5 mps 752 mmHg 73%
    21:00 +6°C° 0 mm 5 mps 752 mmHg 74%
    22:00 +6°C° 0 mm 5 mps 751 mmHg 78%
    23:00 +6°C° 0 mm 5 mps 751 mmHg 82%

    Day after tomorrow, 17 October, Thursday

    Time Temperature Precipitation Wind Pressure Humidity
    00:00 +6°C° 0 mm 4 mps 751 mmHg 86%
    01:00 +6°C° 0 mm 4 mps 750 mmHg 88%
    02:00 +6°C° 0 mm 4 mps 750 mmHg 90%
    03:00 +6°C° 0 mm 4 mps 750 mmHg 93%
    04:00 +7°C° 0 mm 4 mps 749 mmHg 93%
    05:00 +7°C° 0 mm 4 mps 749 mmHg 94%
    06:00 +7°C° 0 mm 4 mps 748 mmHg 94%
    07:00 +7°C° 0 mm 4 mps 748 mmHg 93%
    08:00 +8°C° 0 mm 4 mps 748 mmHg 92%
    09:00 +8°C° 0 mm 4 mps 748 mmHg 91%
    10:00 +11°C° 0 mm 4 mps 748 mmHg 87%
    11:00 +12°C° 0 mm 4 mps 748 mmHg 82%
    12:00 +13°C° 0 mm 4 mps 748 mmHg 77%
    13:00 +13°C° 0 mm 4 mps 747 mmHg 77%
    14:00 +14°C° 0 mm 4 mps 747 mmHg 76%
    15:00 +14°C° 0 mm 3 mps 747 mmHg 76%
    16:00 +13°C° 0.1 mm 3 mps 747 mmHg 80%
    17:00 +12°C° 0.1 mm 3 mps 747 mmHg 84%
    18:00 +12°C° 0.1 mm 3 mps 746 mmHg 87%
    19:00 +11°C° 0.1 mm 3 mps 746 mmHg 89%
    20:00 +11°C° 0.1 mm 3 mps 746 mmHg 90%
    21:00 +12°C° 0.1 mm 2 mps 746 mmHg 91%
    22:00 +10°C° 0 mm 2 mps 746 mmHg 92%
    23:00 +10°C° 0 mm 2 mps 746 mmHg 93%

    18 October, Friday

    Time Temperature Precipitation Wind Pressure Humidity
    00:00 +9°C° 0 mm 2 mps 746 mmHg 94%
    01:00 +10°C° 0.4 mm 3 mps 746 mmHg 94%
    02:00 +10°C° 0.4 mm 3 mps 746 mmHg 94%
    03:00 +10°C° 0.4 mm 3 mps 746 mmHg 94%
    04:00 +10°C° 0.1 mm 3 mps 746 mmHg 94%
    05:00 +10°C° 0.1 mm 3 mps 746 mmHg 94%
    06:00 +10°C° 0.1 mm 3 mps 746 mmHg 94%
    07:00 +10°C° 0 mm 3 mps 746 mmHg 93%
    08:00 +10°C° 0 mm 3 mps 746 mmHg 92%
    09:00 +10°C° 0 mm 3 mps 747 mmHg 91%
    10:00 +11°C° 0 mm 3 mps 747 mmHg 87%
    11:00 +12°C° 0 mm 3 mps 748 mmHg 84%
    12:00 +12°C° 0 mm 3 mps 748 mmHg 81%
    13:00 +12°C° 0 mm 3 mps 748 mmHg 80%
    14:00 +13°C° 0 mm 2 mps 748 mmHg 80%
    15:00 +13°C° 0 mm 2 mps 749 mmHg 79%
    16:00 +13°C° 0 mm 2 mps 749 mmHg 82%
    17:00 +12°C° 0 mm 2 mps 749 mmHg 85%
    18:00 +11°C° 0 mm 1 mps 749 mmHg 87%
    19:00 +11°C° 0 mm 1 mps 750 mmHg 89%
    20:00 +10°C° 0 mm 1 mps 750 mmHg 91%
    21:00 +10°C° 0 mm 1 mps 750 mmHg 92%
    22:00 +10°C° 0 mm 1 mps 750 mmHg 92%
    23:00 +9°C° 0 mm 1 mps 751 mmHg 92%

    19 October, Saturday

    Time Temperature Precipitation Wind Pressure Humidity
    00:00 +8°C° 0 mm 0 mps 751 mmHg 92%
    01:00 +10°C° 0.1 mm 1 mps 751 mmHg 93%
    02:00 +10°C° 0.1 mm 1 mps 751 mmHg 93%
    03:00 +10°C° 0.1 mm 1 mps 751 mmHg 93%
    04:00 +10°C° 0.2 mm 1 mps 751 mmHg 93%
    05:00 +10°C° 0.2 mm 1 mps 751 mmHg 93%
    06:00 +9°C° 0.2 mm 2 mps 751 mmHg 93%
    07:00 +9°C° 0.1 mm 2 mps 751 mmHg 92%
    08:00 +9°C° 0.1 mm 2 mps 752 mmHg 91%
    09:00 +9°C° 0.1 mm 2 mps 752 mmHg 89%
    10:00 +10°C° 0 mm 2 mps 752 mmHg 87%
    11:00 +12°C° 0 mm 2 mps 752 mmHg 85%
    12:00 +13°C° 0 mm 2 mps 752 mmHg 82%
    13:00 +13°C° 0 mm 2 mps 752 mmHg 82%
    14:00 +13°C° 0 mm 2 mps 752 mmHg 82%
    15:00 +13°C° 0 mm 2 mps 752 mmHg 82%
    16:00 +13°C° 0 mm 1 mps 752 mmHg 85%
    17:00 +12°C° 0 mm 1 mps 752 mmHg 88%
    18:00 +11°C° 0 mm 1 mps 752 mmHg 91%
    19:00 +11°C° 0 mm 1 mps 753 mmHg 92%
    20:00 +11°C° 0 mm 1 mps 753 mmHg 93%
    21:00 +11°C° 0 mm 1 mps 753 mmHg 93%
    22:00 +10°C° 0 mm 2 mps 753 mmHg 93%
    23:00 +10°C° 0 mm 2 mps 753 mmHg 93%

    20 October, Sunday

    Time Temperature Precipitation Wind Pressure Humidity
    00:00 +10°C° 0 mm 2 mps 753 mmHg 93%
    01:00 +10°C° 0 mm 2 mps 753 mmHg 93%
    02:00 +10°C° 0 mm 2 mps 753 mmHg 93%
    03:00 +10°C° 0 mm 2 mps 754 mmHg 92%
    04:00 +10°C° 0 mm 2 mps 754 mmHg 92%
    05:00 +10°C° 0 mm 2 mps 753 mmHg 92%
    06:00 +9°C° 0 mm 2 mps 753 mmHg 92%
    07:00 +10°C° 0 mm 3 mps 753 mmHg 90%
    08:00 +10°C° 0 mm 3 mps 753 mmHg 87%
    09:00 +10°C° 0 mm 3 mps 754 mmHg 84%
    10:00 +11°C° 0 mm 3 mps 754 mmHg 80%
    11:00 +12°C° 0 mm 4 mps 754 mmHg 76%
    12:00 +13°C° 0 mm 4 mps 754 mmHg 71%
    13:00 +13°C° 0 mm 4 mps 753 mmHg 70%
    14:00 +14°C° 0 mm 4 mps 753 mmHg 69%
    15:00 +14°C° 0 mm 4 mps 753 mmHg 69%
    16:00 +13°C° 0 mm 4 mps 753 mmHg 72%
    17:00 +13°C° 0 mm 4 mps 753 mmHg 75%
    18:00 +12°C° 0 mm 4 mps 752 mmHg 78%
    19:00 +12°C° 0 mm 4 mps 752 mmHg 78%
    20:00 +11°C° 0 mm 4 mps 752 mmHg 79%
    21:00 +11°C° 0 mm 4 mps 752 mmHg 79%
    22:00 +11°C° 0 mm 4 mps 752 mmHg 81%
    23:00 +11°C° 0 mm 4 mps 752 mmHg 83%
    Show more